Volver al catálogo

STARLINK-3801

ActivoComunicacionesVLEO
NORAD 52356·PAYLOAD·🇺🇸 United States

Lanzado Apr 29, 2022 desde Cape Canaveral Space Force Station

Loading…

Próximos Pases (próximas 24 horas)

TLE

ActualizadoSource: CelesTrak SupGP

Época: Sep 14, 2026, 21:41 UTC

1 52356C 22045AB  26257.90395833  .00048247  00000+0  14259-2 0  2570
2 52356  53.1593  55.5722 0001204  78.9302 268.7096 15.34358333    18

Sigue STARLINK-3801 en tiempo real con AllMySat

Download on the App Store